Regional Weather Roundup
Issued by NWS Kansas City/Pleasant Hill, MO

Home | Current Version | Previous Version | Graphics & Text | Print | Product List | Glossary Off
Versions: 1 2 3 4 5 6 7 8 9 10 11 12 13 14 15 16 17 18 19 20 21 22 23 24 25 26 27 28 29 30 31 32 33 34 35 36 37 38 39 40 41 42 43 44 45 46 47 48 49 50

773
ASUS43 KEAX 250610
RWREAX

WEATHER ROUNDUP FOR EASTERN KANSAS AND NORTHWEST MISSOURI
NATIONAL WEATHER SERVICE KANSAS CITY/PLEASANT HILL MO
1200 AM CST SAT FEB 25 2017

KSZ040-057-103>105-MOZ028-029-037-043-250700-
...KANSAS CITY METROPOLITAN AREA...

CITY           SKY/WX    TMP DP  RH WIND       PRES   REMARKS
K.C. INTL      PTCLDY    24  18  77 W9        30.06R WCI  14
6HR MIN TEMP:  24; 6HR MAX TEMP:  28; 6HR PCP: TRACE;

K.C. DOWNTOWN  MOCLDY    27  18  69 W10       30.07S WCI  17
6HR MIN TEMP:  26; 6HR MAX TEMP:  31; 6HR PCP: TRACE;

LEES SUMMIT    CLEAR     25  18  74 W13       30.06R WCI  14
6HR MIN TEMP:  25; 6HR MAX TEMP:  31; 6HR PCP: TRACE;

OLATHE - IXD   PTCLDY    23  17  78 W12       30.08R WCI  12
6HR MIN TEMP:  23; 6HR MAX TEMP:  29; 6HR PCP: TRACE;

OLATHE - OJC   MOCLDY    24  18  77 NW9       30.07R WCI  14
6HR MIN TEMP:  23; 6HR MAX TEMP:  29;

LAWRENCE       CLEAR     24  19  81 W13       30.10R WCI  12

$$

MOZ001>008-011>017-020>025-030>033-038>040-044>046-053-054-250700-
...NORTHERN AND CENTRAL MISSOURI...

CITY           SKY/WX    TMP DP  RH WIND       PRES   REMARKS
ST. JOSEPH     CLOUDY    25  20  81 NW13      30.07R WCI  14
6HR MIN TEMP:  23; 6HR MAX TEMP:  28; 6HR PCP: TRACE;

MOSBY            N/A     27  19  74 W12G17    30.06R WCI  16
WARRENSBURG    PTCLDY    27  19  74 W12G17    30.06R WCI  16
WHITEMAN AFB   CLEAR     26  19  77 W15       30.03R WCI  13
6HR MIN TEMP:  26; 6HR MAX TEMP:  34; 6HR PCP: TRACE;

CLINTON        MOCLDY    27  16  63 NW12G21   30.07R WCI  16
SEDALIA        CLOUDY    28  18  66 NW17G23   30.02R WCI  16
6HR MIN TEMP:  27; 6HR MAX TEMP:  35; 6HR PCP: TRACE;

WARSAW         NOT AVBL
CHILLICOTHE      N/A     26  18  71 W8G20     30.00R WCI  18
6HR MIN TEMP:  25; 6HR MAX TEMP:  30;

KIRKSVILLE     CLOUDY    25  21  85 W13       29.91R FOG     WCI  14
6HR MIN TEMP:  25; 6HR MAX TEMP:  32; 6HR PCP:  0.01;


$$

MOZ041-047>049-056>058-063>065-088>090-097-250700-
...EASTERN AND SOUTHERN MISSOURI...

CITY           SKY/WX    TMP DP  RH WIND       PRES   REMARKS
ST. LOUIS INTL CLOUDY    35  20  54 W24G33    29.86R WCI  23
6HR MIN TEMP:  35; 6HR MAX TEMP:  48;

SPIRIT OF STL  CLOUDY    34  21  59 W18G26    29.87R WCI  23
COLUMBIA       CLOUDY    29  20  69 W14       29.95R WCI  18
JEFFERSON CITY CLOUDY    30  19  63 NW18      29.98R WCI  18
ROLLA          CLOUDY    29  18  63 NW20G28   29.93R WCI  16
OSAGE BEACH    CLOUDY    30  20  66 NW13G21   30.00R WCI  20
SPRINGFIELD    CLOUDY    30  19  63 NW13      30.02S WCI  20
BRANSON        CLOUDY    32  18  55 NW13G25   30.04R WCI  22
JOPLIN         CLOUDY    30  19  63 NW18G25   30.12R WCI  18
WEST PLAINS    CLOUDY    34  20  56 W17G26    29.96R WCI  23

$$

IAZ060-094-KSZ022-034>040-054-083-096-NEZ052-066-093-250700-
...KANSAS...SOUTHEAST NEBRASKA AND IOWA...

CITY           SKY/WX    TMP DP  RH WIND       PRES   REMARKS
TOPEKA         CLEAR     25  19  78 W12       30.11R WCI  14
6HR MIN TEMP:  25; 6HR MAX TEMP:  29; 6HR PCP: TRACE;

MANHATTAN      CLEAR     23  17  78 W5        30.15R WCI  17
EMPORIA        CLEAR     24  17  74 NW12      30.14R WCI  13
CHANUTE        CLEAR     26  16  65 NW10      30.14S WCI  16
WICHITA        CLEAR     25  16  68 NW12      30.18R WCI  14
OMAHA          PTCLDY    24  15  68 NW18      30.05R WCI  10
LINCOLN        CLEAR     25  17  72 NW13      30.11R WCI  14
FALLS CITY     CLOUDY    24  18  77 NW13      30.07R WCI  12
LAMONI         CLOUDY    23  16  74 NW20G28   29.95R WCI   8
DES MOINES     PTCLDY    22  15  75 NW16      29.93R WCI   8

$$





USA.gov is the U.S. government's official web portal to all federal, state and local government web resources and services.